Weather in Lomovoye

Russia / Arkhangel'skaya Oblast'     64°00′27″N   40°39′28″E
temp.,
°C
wind,
m/s
gust,
m/s
humid.,
%
clouds,
%
prec.,
mm/h
press.,
hPa
HPBL,
m
11 may, tue
tue1100:00+9ssw51278100 0.0 1020925
03:00+9sw41283100 0.1 1020734
06:00+10sw41284100 0.1 1021611
09:00+11ssw41183100 0.3 1021482
12:00+13sw4137794 0.1 1022688
15:00+21wsw51147100 0.1 10211751
18:00+19wsw51053100 0.0 10211246
21:00+15sw31168100 0.0 1022337
12 may, wed
wed1200:00+13sw41275100 0.0 1023410
03:00+12sw41377100 0.0 1023448
06:00+13sw412725 0.0 1024494
09:00+17wsw4757100 0.0 1024590
12:00+22wsw464657 0.0 10251383
15:00+24wsw35375 0.0 10241926
18:00+23sw24390 0.0 10241282
21:00+17ssw22620 0.0 102432
13 may, thu
thu1300:00+14ssw23730 0.0 102459
03:00+13ssw23790 0.0 102456
06:00+15ssw27674 0.0 1023199
09:00+20ssw36460 0.0 1022681
12:00+24sw46373 0.0 10211580
15:00+25sw45325 0.0 10202365
18:00+24sw353980 0.0 10181632
21:00+19sw2358100 0.0 101847
14 may, fri
fri1400:00+16ssw23725 0.0 101842
03:00+14s22815 0.0 101737
06:00+17sse237024 0.1 1016139
09:00+21sse235093 0.1 1014712
12:00+23sse3446100 0.0 10121667
15:00+17sw4781100 1.5 1013477
18:00+18sw4876100 0.5 1012924
21:00+14wsw39781 0.6 1013408
15 may, sat
sat1500:00+11sw23915 0.0 101460
03:00+10sw249215 0.0 101480
06:00+13ssw137223 0.0 1014126
09:00+15sse2560100 0.0 1014353
12:00+21wsw354572 0.0 10131731
15:00+19nw115199 0.1 101249
18:00+20ene2347100 0.0 1012672
21:00+15ene397286 0.0 1012284